Dickinson, ND

1:11 AM MDT on June 23, 2017 (GMT -0600)
Dickinson Municipal

Weather History for KDIK - August, 2013

Change the Weather History Date:

Tuesday, August 6, 2013

  Actual Average Record
Temperature  
Mean Temperature 65 °F 70 °F  
Max Temperature 76 °F 85 °F 104 °F (1946)
Min Temperature 54 °F 56 °F 41 °F (1924)
Degree Days  
Heating Degree Days 0 1  
Month to date heating degree days 0 6  
Since 1 June heating degree days 156 177  
Since 1 July heating degree days 32 40  
Cooling Degree Days 0 6  
Month to date cooling degree days 4 36  
Year to date cooling degree days 147 265  
Since 1 June cooling degree days 138 255  
Growing Degree Days 15 (Base 50)    
Moisture  
Dew Point 55 °F    
Average Humidity 70    
Maximum Humidity 93    
Minimum Humidity 46    
Precipitation  
Precipitation 0.64 in 0.05 in 1.61 in (1916)
Month to date precipitation 1.14 0.31  
Year to date precipitation 12.64 11.06  
Sea Level Pressure  
Sea Level Pressure 29.86 in    
Wind  
Wind Speed 13 mph (WNW)    
Max Wind Speed 53 mph    
Max Gust Speed 87 mph    
Visibility 9 miles    
Events Fog , Rain , Thunderstorm    
T = Trace of Precipitation, MM = Missing Value Source: NWS Daily Summary

Daily Weather History Graph

Daily Weather History Graph

Search for Another Location

Airport or City:

Trip Planner

Search our weather history database for the weather conditions in past years. The results will help you decide how hot, cold, wet, or windy it might be!

Date:

Astronomy

Aug. 06, 2013 Rise Set
Actual Time 5:37 AM MDT 8:15 PM MDT
Civil Twilight 5:03 AM MDT 8:49 PM MDT
Nautical Twilight 4:19 AM MDT 9:33 PM MDT
Astronomical Twilight 3:28 AM MDT 10:23 PM MDT
Moon 5:35 AM MDT (8/6) 7:45 PM MDT (8/6)
Length of Visible Light 15h 46m
Length of Day
14h 37m
Waning Crescent, 0% of the Moon is Illuminated
Aug 6
Waning Crescent
Aug 6
New
Aug 14
First Quarter
Aug 20
Full
Aug 28
Last Quarter

Hourly Weather History & Observations

Time (MDT) Temp. Dew Point Humidity Pressure Visibility Wind Dir Wind Speed Gust Speed Precip Events Conditions
12:56 AM 57.0 °F 52.0 °F 83% 29.76 in 10.0 mi WSW 9.2 mph - N/A   Clear
1:56 AM 61.0 °F 55.0 °F 81% 29.72 in 10.0 mi WSW 12.7 mph - N/A   Clear
2:56 AM 60.1 °F 55.0 °F 83% 29.72 in 10.0 mi West 9.2 mph - N/A   Clear
3:56 AM 57.9 °F 54.0 °F 87% 29.74 in 10.0 mi WNW 9.2 mph - N/A   Clear
4:56 AM 55.9 °F 53.1 °F 90% 29.76 in 10.0 mi West 8.1 mph - N/A   Clear
5:56 AM 57.9 °F 55.0 °F 90% 29.78 in 10.0 mi West 10.4 mph - N/A   Mostly Cloudy
6:56 AM 59.0 °F 55.9 °F 90% 29.81 in 10.0 mi WNW 11.5 mph - N/A   Clear
7:56 AM 63.0 °F 55.9 °F 78% 29.82 in 10.0 mi WNW 12.7 mph - N/A   Clear
8:56 AM 66.9 °F 55.0 °F 66% 29.84 in 10.0 mi WNW 15.0 mph 20.7 mph N/A   Clear
9:56 AM 71.1 °F 55.9 °F 59% 29.84 in 10.0 mi WNW 18.4 mph 23.0 mph N/A   Partly Cloudy
10:56 AM 71.1 °F 55.0 °F 57% 29.85 in 10.0 mi WNW 17.3 mph 25.3 mph N/A   Scattered Clouds
11:56 AM 73.0 °F 55.9 °F 55% 29.85 in 10.0 mi WNW 21.9 mph 28.8 mph N/A   Scattered Clouds
12:56 PM 71.1 °F 55.0 °F 57% 29.87 in 10.0 mi NW 23.0 mph 33.4 mph N/A   Partly Cloudy
1:56 PM 73.9 °F 55.0 °F 52% 29.86 in 10.0 mi WNW 18.4 mph 26.5 mph N/A   Mostly Cloudy
2:56 PM 73.9 °F 53.1 °F 48% 29.87 in 10.0 mi WNW 19.6 mph 27.6 mph N/A   Scattered Clouds
3:56 PM 75.0 °F 54.0 °F 48% 29.87 in 10.0 mi NNW 12.7 mph 25.3 mph N/A   Partly Cloudy
4:56 PM 73.0 °F 52.0 °F 48% 29.87 in 10.0 mi NNW 12.7 mph 19.6 mph N/A   Partly Cloudy
5:56 PM 71.1 °F 55.9 °F 59% 29.88 in 10.0 mi NE 9.2 mph - N/A   Mostly Cloudy
6:56 PM 68.0 °F 57.0 °F 68% 29.88 in 10.0 mi ENE 5.8 mph - N/A   Mostly Cloudy
7:56 PM 64.0 °F 57.0 °F 78% 29.86 in 10.0 mi ESE 8.1 mph - N/A   Clear
8:10 PM 64.4 °F 57.2 °F 77% 29.88 in 10.0 mi ESE 11.5 mph - N/A Thunderstorm Mostly Cloudy
8:25 PM 60.8 °F 55.4 °F 82% 29.98 in 1.0 mi NNW 52.9 mph 87.5 mph 0.23 in Rain , Thunderstorm Light Thunderstorms and Rain
8:30 PM 57.2 °F 55.4 °F 94% 29.96 in 0.5 mi North - - 0.52 in Fog , Rain , Thunderstorm Heavy Thunderstorms and Rain
8:41 PM 57.2 °F 55.4 °F 94% 29.95 in 2.0 mi North - - 0.59 in Rain , Thunderstorm Light Thunderstorms and Rain
8:48 PM 57.2 °F 55.4 °F 94% 29.96 in 6.0 mi North - - 0.61 in Rain , Thunderstorm Rain
8:56 PM 60.1 °F 57.0 °F 90% 29.93 in 5.0 mi North - - 0.63 in Rain , Thunderstorm Rain
9:07 PM 59.0 °F 57.2 °F 94% 29.95 in 10.0 mi North - - 0.01 in Rain Light Rain
9:56 PM 55.9 °F 54.0 °F 93% 29.91 in 10.0 mi North - - 0.01 in   Scattered Clouds
10:56 PM 55.9 °F 53.1 °F 90% 29.92 in 10.0 mi North - - N/A   Mostly Cloudy
11:56 PM 55.9 °F 53.1 °F 90% 29.93 in 10.0 mi North - - N/A   Scattered Clouds